GW2508 Weather Reports


time (UTC)temp
C
wind
direction
speed
KPH
gust
KPH
rain 1hr
cm
rain 24hr
cm
rain mn
cm
humidity
%
barometer
mb
20260905204925 32 274 3.2 4.8 0.00 0.00 0.00 65 1013.7
20260905204421 32 240 3.2 4.8 0.00 0.00 0.00 66 1013.6
20260905203921 32 227 3.2 4.8 0.00 0.00 0.00 63 1014.0
20260905203416 31 234 3.2 6.4 0.00 0.00 0.00 61 1013.9
20260905202912 31 242 1.6 9.7 0.00 0.00 0.00 62 1013.9
20260905202407 31 247 4.8 11.3 0.00 0.00 0.00 63 1013.9
20260905201903 31 282 8.0 9.7 0.00 0.00 0.00 57 1014.0
20260905201358 30 231 1.6 3.2 0.00 0.00 0.00 57 1014.0
20260905200857 30 257 4.8 4.8 0.00 0.00 0.00 61 1014.1
20260905200353 28 262 4.8 4.8 0.00 0.00 0.00 66 1014.1
20260905195851 28 239 3.2 6.4 0.00 0.00 0.00 65 1014.3
20260905195347 28 297 8.0 14.5 0.00 0.00 0.00 62 1014.5
20260905194842 29 280 6.4 17.7 0.00 0.00 0.00 66 1014.4
20260905194342 31 279 9.7 17.7 0.00 0.00 0.00 67 1014.7
20260905193841 31 235 1.6 3.2 0.00 0.00 0.00 73 1014.2
20260905193336 31 229 1.6 4.8 0.00 0.00 0.00 70 1014.4
20260905192832 32 321 3.2 4.8 0.00 0.00 0.00 67 1014.5
20260905192328 32 345 0.0 1.6 0.00 0.00 0.00 70 1014.1
20260905191827 33 336 6.4 6.4 0.00 0.00 0.00 68 1014.4
20260905191326 33 211 1.6 4.8 0.00 0.00 0.00 63 1014.5
20260905190825 33 242 1.6 3.2 0.00 0.00 0.00 66 1014.4
20260905190324 33 248 3.2 3.2 0.00 0.00 0.00 63 1014.6
20260905185823 33 208 3.2 3.2 0.00 0.00 0.00 63 1014.2
20260905185319 33 215 4.8 9.7 0.00 0.00 0.00 64 1014.4
20260905184818 33 186 0.0 1.6 0.00 0.00 0.00 65 1014.5
20260905184317 32 214 0.0 3.2 0.00 0.00 0.00 68 1014.9
20260905183816 32 221 1.6 9.7 0.00 0.00 0.00 64 1014.9
20260905183312 32 208 3.2 3.2 0.00 0.00 0.00 65 1014.8
20260905182812 33 216 0.0 3.2 0.00 0.00 0.00 65 1015.0
20260905182311 32 190 1.6 3.2 0.00 0.00 0.00 65 1015.1
20260905181807 32 240 1.6 4.8 0.00 0.00 0.00 65 1015.0
20260905181301 31 205 1.6 4.8 0.00 0.00 0.00 68 1015.2
20260905180800 32 263 3.2 4.8 0.00 0.00 0.00 67 1015.4
20260905180256 31 194 3.2 4.8 0.00 0.00 0.00 71 1015.3
20260905175755 31 245 6.4 6.4 0.00 0.00 0.00 72 1015.3
20260905175250 31 204 1.6 9.7 0.00 0.00 0.00 67 1015.5
20260905174745 31 201 1.6 6.4 0.00 0.00 0.00 71 1015.6
20260905174241 31 235 4.8 6.4 0.00 0.00 0.00 70 1015.6
20260905173737 31 195 3.2 3.2 0.00 0.00 0.00 75 1015.4
20260905173232 31 184 1.6 6.4 0.00 0.00 0.00 69 1015.5
20260905172727 31 191 1.6 3.2 0.00 0.00 0.00 71 1015.4
20260905172226 31 144 3.2 4.8 0.00 0.00 0.00 69 1015.7
20260905171722 31 191 1.6 4.8 0.00 0.00 0.00 71 1015.7
20260905171218 30 145 6.4 6.4 0.00 0.00 0.00 70 1015.7
20260905170715 30 169 4.8 6.4 0.00 0.00 0.00 70 1015.9
20260905170215 30 171 4.8 9.7 0.00 0.00 0.00 71 1015.9
20260905165715 30 201 1.6 6.4 0.00 0.00 0.00 72 1015.8
20260905165210 30 227 4.8 11.3 0.00 0.00 0.00 71 1016.0
20260905164705 30 169 3.2 4.8 0.00 0.00 0.00 71 1016.1
20260905164204 29 189 3.2 11.3 0.00 0.00 0.00 72 1015.9
20260905163700 30 225 3.2 4.8 0.00 0.00 0.00 71 1015.9
20260905163157 29 188 3.2 6.4 0.00 0.00 0.00 75 1015.9
20260905162653 28 189 6.4 11.3 0.00 0.00 0.00 75 1015.8
20260905162152 28 143 3.2 9.7 0.00 0.00 0.00 72 1015.8
20260905161648 29 141 8.0 9.7 0.00 0.00 0.00 70 1015.9
20260905161145 29 196 6.4 12.9 0.00 0.00 0.00 69 1016.0
20260905160644 29 223 4.8 11.3 0.00 0.00 0.00 72 1015.8
20260905160143 30 154 8.0 9.7 0.00 0.00 0.00 70 1015.7
20260905155638 29 196 9.7 11.3 0.00 0.00 0.00 70 1015.8
20260905155137 29 170 4.8 11.3 0.00 0.00 0.00 70 1016.0
20260905154631 29 143 8.0 11.3 0.00 0.00 0.00 68 1016.3
20260905154127 28 132 3.2 12.9 0.00 0.00 0.00 69 1016.3
20260905153623 28 178 4.8 12.9 0.00 0.00 0.00 70 1016.2
20260905153118 28 152 6.4 12.9 0.00 0.00 0.00 71 1016.1
20260905152613 28 149 6.4 16.1 0.00 0.00 0.00 71 1016.1
20260905152108 28 196 3.2 6.4 0.00 0.00 0.00 73 1016.0
20260905151602 28 99 11.3 16.1 0.00 0.00 0.00 75 1016.0
20260905151058 28 136 6.4 12.9 0.00 0.00 0.00 75 1015.9
20260905150553 28 206 8.0 12.9 0.00 0.00 0.00 74 1015.9
20260905150052 28 192 3.2 11.3 0.00 0.00 0.00 74 1016.4
20260905145550 28 202 8.0 12.9 0.00 0.00 0.00 75 1016.3
20260905145049 28 183 4.8 11.3 0.00 0.00 0.00 76 1016.5
20260905144544 27 145 8.0 12.9 0.00 0.00 0.00 76 1016.4
20260905144044 28 155 3.2 11.3 0.00 0.00 0.00 77 1016.2
20260905143544 28 145 8.0 9.7 0.00 0.00 0.00 76 1015.9
20260905143039 27 192 8.0 16.1 0.00 0.00 0.00 78 1016.1
20260905142538 27 114 3.2 6.4 0.00 0.00 0.00 78 1016.1
20260905142033 27 122 6.4 12.9 0.00 0.00 0.00 80 1016.0
20260905141532 27 160 8.0 12.9 0.00 0.00 0.00 79 1016.1
20260905141029 27 185 6.4 9.7 0.00 0.00 0.00 80 1016.2
20260905140529 27 170 3.2 16.1 0.00 0.00 0.00 82 1016.2
20260905140028 26 117 8.0 11.3 0.00 0.00 0.00 82 1016.1
20260905135524 26 192 9.7 16.1 0.00 0.00 0.00 83 1016.2
20260905135020 27 154 4.8 12.9 0.00 0.00 0.00 84 1016.0
20260905134519 26 185 4.8 12.9 0.00 0.00 0.00 85 1016.1
20260905134018 25 141 4.8 9.7 0.00 0.00 0.00 89 1016.2
20260905133514 25 127 8.0 11.3 0.00 0.00 0.00 92 1016.2
20260905133013 24 109 8.0 14.5 0.00 0.00 0.00 93 1016.0
20260905132508 24 103 8.0 12.9 0.00 0.00 0.00 95 1016.1
20260905132008 24 113 0.0 0.0 0.00 0.00 0.00 95 1016.1
20260905131504 24 161 0.0 0.0 0.00 0.00 0.00 94 1015.7
20260905130959 24 158 0.0 0.0 0.00 0.00 0.00 93 1015.8
20260905130458 23 163 0.0 0.0 0.00 0.00 0.00 97 1015.8
20260905125958 23 193 0.0 0.0 0.00 0.00 0.00 97 1015.7
20260905125453 23 162 0.0 0.0 0.00 0.00 0.00 97 1015.6
20260905124948 23 166 0.0 0.0 0.00 0.00 0.00 97 1015.7
20260905124445 23 193 0.0 0.0 0.00 0.00 0.00 97 1015.5
20260905123940 23 190 0.0 0.0 0.00 0.00 0.00 97 1015.5
20260905123437 23 191 0.0 0.0 0.00 0.00 0.00 97 1015.8
20260905122937 23 187 0.0 0.0 0.00 0.00 0.00 98 1015.6
20260905122436 23 170 0.0 0.0 0.00 0.00 0.00 98 1015.5
20260905121932 23 165 0.0 0.0 0.00 0.00 0.00 98 1015.3
20260905121427 23 191 0.0 0.0 0.00 0.00 0.00 98 1015.6
20260905120926 23 194 0.0 0.0 0.00 0.00 0.00 98 1015.4
20260905120421 23 193 0.0 0.0 0.00 0.00 0.00 98 1015.4
20260905115916 23 211 0.0 0.0 0.00 0.00 0.00 98 1015.5
20260905115416 22 206 0.0 0.0 0.00 0.00 0.00 98 1015.6
20260905114911 22 205 0.0 0.0 0.00 0.00 0.00 98 1015.5
20260905114410 22 204 0.0 0.0 0.00 0.00 0.00 98 1015.4
20260905113909 22 190 0.0 0.0 0.00 0.00 0.00 98 1015.1
20260905113405 22 179 0.0 0.0 0.00 0.00 0.00 98 1015.3
20260905112900 22 190 0.0 0.0 0.00 0.00 0.00 98 1015.3
20260905112355 22 207 0.0 0.0 0.00 0.00 0.00 98 1015.4
20260905111845 22 214 0.0 0.0 0.00 0.00 0.00 98 1015.3
20260905111345 22 208 0.0 0.0 0.00 0.00 0.00 98 1015.3
20260905110844 22 203 0.0 0.0 0.00 0.00 0.00 98 1015.2
20260905110344 22 212 0.0 0.0 0.00 0.00 0.00 98 1015.2
20260905105840 22 20 0.0 0.0 0.00 0.00 0.00 98 1015.2
20260905105339 22 48 0.0 0.0 0.00 0.00 0.00 98 1015.2
20260905104838 22 180 0.0 0.0 0.00 0.00 0.00 98 1015.3
20260905104335 22 194 0.0 0.0 0.00 0.00 0.00 98 1015.5
20260905103834 22 206 0.0 0.0 0.00 0.00 0.00 98 1015.2
20260905103330 22 202 0.0 0.0 0.00 0.00 0.00 98 1015.3
20260905102826 22 206 0.0 0.0 0.00 0.00 0.00 98 1015.2
20260905102323 22 198 0.0 0.0 0.00 0.00 0.00 98 1015.1
20260905101822 22 186 0.0 0.0 0.00 0.00 0.00 98 1015.3
20260905101321 22 196 0.0 0.0 0.00 0.00 0.00 98 1015.2
20260905100816 22 196 0.0 0.0 0.00 0.00 0.00 98 1015.1
20260905100312 22 201 0.0 0.0 0.00 0.00 0.00 98 1015.1
20260905095811 22 196 0.0 0.0 0.00 0.00 0.00 98 1015.2
20260905095310 22 200 0.0 0.0 0.00 0.00 0.00 98 1015.3
20260905094805 22 196 0.0 0.0 0.00 0.00 0.00 98 1015.3
20260905094301 22 189 0.0 0.0 0.00 0.00 0.00 98 1015.2
20260905093800 22 182 0.0 0.0 0.00 0.00 0.00 98 1015.2
20260905093256 22 160 0.0 0.0 0.00 0.00 0.00 98 1015.2
20260905092751 22 197 0.0 0.0 0.00 0.00 0.00 98 1015.1
20260905092246 22 221 0.0 0.0 0.00 0.00 0.00 98 1015.1
20260905091746 22 212 0.0 0.0 0.00 0.00 0.00 98 1015.3
20260905091241 22 197 0.0 0.0 0.00 0.00 0.00 98 1015.0
20260905090740 22 186 0.0 0.0 0.00 0.00 0.00 98 1015.0
20260905090236 22 188 0.0 0.0 0.00 0.00 0.00 98 1015.0
20260905085735 22 186 0.0 0.0 0.00 0.00 0.00 98 1014.9
20260905085230 22 194 0.0 0.0 0.00 0.00 0.00 98 1014.7
20260905084730 22 196 0.0 0.0 0.00 0.00 0.00 98 1014.8
20260905084230 22 196 0.0 0.0 0.00 0.00 0.00 98 1014.8
20260905083725 22 197 0.0 0.0 0.00 0.00 0.00 98 1014.7
20260905083220 22 196 0.0 0.0 0.00 0.00 0.00 98 1014.7
20260905082717 23 196 0.0 0.0 0.00 0.00 0.00 98 1014.6
20260905082212 23 196 0.0 0.0 0.00 0.00 0.00 98 1014.5
20260905081712 23 196 0.0 0.0 0.00 0.00 0.00 98 1014.5
20260905081207 23 197 0.0 0.0 0.00 0.00 0.00 98 1014.6
20260905080707 23 197 0.0 0.0 0.00 0.00 0.00 98 1014.7
20260905080206 23 196 0.0 0.0 0.00 0.00 0.00 98 1014.5
20260905075706 23 194 0.0 0.0 0.00 0.00 0.00 98 1014.7
20260905075205 23 196 0.0 0.0 0.00 0.00 0.00 98 1014.7
20260905074704 23 197 0.0 0.0 0.00 0.00 0.00 98 1014.8
20260905074200 23 199 0.0 0.0 0.00 0.00 0.00 98 1014.5
20260905073655 23 199 0.0 0.0 0.00 0.00 0.00 98 1014.7
20260905073151 23 199 0.0 0.0 0.00 0.00 0.00 98 1014.5
20260905072650 23 199 0.0 0.0 0.00 0.00 0.00 98 1014.7
20260905072146 23 197 0.0 0.0 0.00 0.00 0.00 98 1014.8
20260905071642 23 194 0.0 0.0 0.00 0.00 0.00 98 1014.7
20260905071137 23 190 0.0 0.0 0.00 0.00 0.00 98 1014.7
20260905070633 23 180 0.0 0.0 0.00 0.00 0.00 98 1014.5
20260905070129 23 193 0.0 0.0 0.00 0.00 0.00 98 1014.7
20260905065627 23 197 0.0 0.0 0.00 0.00 0.00 98 1014.8
20260905065121 23 198 0.0 0.0 0.00 0.00 0.00 98 1015.0
20260905064616 23 201 0.0 0.0 0.00 0.00 0.00 98 1015.0
20260905064112 23 201 0.0 0.0 0.00 0.00 0.00 98 1015.4
20260905063611 23 197 0.0 0.0 0.00 0.00 0.00 98 1015.2
20260905063108 23 206 0.0 0.0 0.00 0.00 0.00 98 1015.1
20260905062603 23 208 0.0 0.0 0.00 0.00 0.00 98 1015.2
20260905062102 23 206 0.0 0.0 0.00 0.00 0.00 98 1015.0
20260905061557 23 204 0.0 0.0 0.00 0.00 0.00 98 1015.1
20260905061056 23 201 0.0 0.0 0.00 0.00 0.00 98 1015.3
20260905060552 23 203 0.0 0.0 0.00 0.00 0.00 98 1015.4
20260905060048 23 203 0.0 0.0 0.00 0.00 0.00 98 1015.3
20260905055547 23 209 0.0 0.0 0.00 0.00 0.00 98 1015.3
20260905055042 23 195 0.0 0.0 0.00 0.00 0.00 98 1015.3
20260905054538 23 188 0.0 0.0 0.00 0.00 0.00 98 1015.3
20260905054033 23 184 0.0 0.0 0.00 0.00 0.00 98 1015.5
20260905053532 23 175 0.0 0.0 0.00 0.00 0.00 98 1015.3
20260905053028 23 176 0.0 0.0 0.00 0.00 0.00 98 1015.3
20260905052527 23 181 0.0 0.0 0.00 0.00 0.00 98 1015.4
20260905052022 23 181 0.0 0.0 0.00 0.00 0.00 98 1015.3
20260905051518 24 183 0.0 0.0 0.00 0.00 0.00 98 1015.2
20260905051015 24 181 0.0 0.0 0.00 0.00 0.00 98 1015.4
20260905050510 24 169 0.0 0.0 0.00 0.00 0.00 98 1015.5
20260905050007 24 163 0.0 0.0 0.00 0.00 0.00 98 1015.3
20260905045501 24 193 0.0 0.0 0.00 0.00 0.00 98 1015.4
20260905044956 24 192 0.0 0.0 0.00 0.00 0.00 98 1015.3
20260905044451 23 186 0.0 0.0 0.00 0.00 0.00 98 1015.4
20260905043950 23 183 0.0 0.0 0.00 0.00 0.00 97 1015.5
20260905043450 23 199 0.0 0.0 0.00 0.00 0.00 98 1015.4
20260905042945 23 198 0.0 0.0 0.00 0.00 0.00 97 1015.2
20260905042438 23 202 0.0 0.0 0.00 0.00 0.00 98 1015.4
20260905041934 24 205 0.0 0.0 0.00 0.00 0.00 97 1015.6
20260905041430 24 207 0.0 0.0 0.00 0.00 0.00 97 1015.7
20260905040930 24 209 0.0 0.0 0.00 0.00 0.00 97 1015.6
20260905040424 24 196 0.0 0.0 0.00 0.00 0.00 97 1015.8
20260905035923 25 195 0.0 0.0 0.00 0.00 0.00 97 1015.7
20260905035419 24 192 0.0 0.0 0.00 0.00 0.00 97 1015.8
20260905034916 25 191 0.0 0.0 0.00 0.00 0.00 97 1015.7
20260905034411 25 190 0.0 0.0 0.00 0.00 0.00 97 1015.7
20260905033909 24 180 0.0 0.0 0.00 0.00 0.00 97 1015.7
20260905033405 25 190 0.0 0.0 0.00 0.00 0.00 97 1015.8
20260905032904 25 186 0.0 0.0 0.00 0.00 0.00 97 1015.7
20260905032400 25 195 0.0 0.0 0.00 0.00 0.00 97 1015.9
20260905031855 25 196 0.0 0.0 0.00 0.00 0.00 97 1015.8
20260905031350 25 192 0.0 0.0 0.00 0.00 0.00 97 1015.9
20260905030845 25 170 0.0 0.0 0.00 0.00 0.00 96 1015.8
20260905030341 25 189 0.0 0.0 0.00 0.00 0.00 96 1015.8
20260905025840 25 205 0.0 0.0 0.00 0.00 0.00 96 1015.9
20260905025336 25 197 0.0 0.0 0.00 0.00 0.00 96 1015.7
20260905024832 25 193 0.0 0.0 0.00 0.00 0.00 96 1015.6
20260905024327 25 194 0.0 0.0 0.00 0.00 0.00 96 1015.7
20260905023822 25 195 0.0 0.0 0.00 0.00 0.00 96 1015.5
20260905023318 25 197 0.0 0.0 0.00 0.00 0.00 96 1015.5
20260905022816 25 188 0.0 0.0 0.00 0.00 0.00 96 1015.5
20260905022312 25 178 0.0 0.0 0.00 0.00 0.00 95 1015.5
20260905021807 25 181 0.0 0.0 0.00 0.00 0.00 96 1015.3
20260905021302 25 200 0.0 0.0 0.00 0.00 0.00 95 1015.6
20260905020801 25 209 0.0 0.0 0.00 0.00 0.00 95 1015.6
20260905020257 25 178 0.0 0.0 0.00 0.00 0.00 95 1015.8
20260905015755 25 182 0.0 0.0 0.00 0.00 0.00 95 1015.5
20260905015250 25 189 0.0 0.0 0.00 0.00 0.00 95 1015.7
20260905014749 25 187 0.0 0.0 0.00 0.00 0.00 95 1015.6
20260905014245 25 189 0.0 0.0 0.00 0.00 0.00 94 1015.6
20260905013740 25 186 0.0 0.0 0.00 0.00 0.00 94 1015.2
20260905013236 26 147 0.0 0.0 0.00 0.00 0.00 93 1015.2
20260905012731 26 172 0.0 0.0 0.00 0.00 0.00 93 1015.3
20260905012227 26 189 0.0 0.0 0.00 0.00 0.00 93 1015.3
20260905011724 26 190 0.0 0.0 0.00 0.00 0.00 93 1015.2
20260905011219 26 190 0.0 0.0 0.00 0.00 0.00 93 1015.3
20260905010719 26 189 0.0 0.0 0.00 0.00 0.00 91 1015.3
20260905010215 26 197 0.0 0.0 0.00 0.00 0.00 90 1015.2
20260905005711 26 185 0.0 0.0 0.00 0.00 0.00 90 1015.0
20260905005207 26 185 0.0 0.0 0.00 0.00 0.00 90 1015.1
20260905004700 26 184 0.0 0.0 0.00 0.00 0.00 89 1015.0
20260905004155 27 183 0.0 0.0 0.00 0.00 0.00 88 1015.0
20260905003651 27 187 0.0 0.0 0.00 0.00 0.00 88 1015.2
20260905003147 27 188 0.0 0.0 0.00 0.00 0.00 90 1015.0
20260905002643 27 188 0.0 0.0 0.00 0.00 0.00 87 1014.9
20260905002142 27 188 0.0 0.0 0.00 0.00 0.00 87 1014.8
20260905001638 27 185 0.0 0.0 0.00 0.00 0.00 88 1015.0
20260905001137 28 177 0.0 0.0 0.00 0.00 0.00 86 1014.9
20260905000632 28 182 0.0 0.0 0.00 0.00 0.00 86 1014.9
20260905000129 29 172 0.0 0.0 0.00 0.00 0.00 82 1015.0
20260904235628 30 201 0.0 0.0 0.00 0.00 0.00 81 1015.0
20260904235127 30 220 0.0 0.0 0.00 0.00 0.00 75 1014.9
20260904234623 31 199 0.0 0.0 0.00 0.00 0.00 78 1014.8
20260904234118 30 199 0.0 0.0 0.00 0.00 0.00 81 1014.9
20260904233614 30 211 0.0 0.0 0.00 0.00 0.00 79 1015.1
20260904233110 31 216 0.0 0.0 0.00 0.00 0.00 80 1014.9
20260904232606 32 190 0.0 0.0 0.00 0.00 0.00 77 1015.0
20260904232103 32 192 0.0 0.0 0.00 0.00 0.00 74 1015.0
20260904231558 33 195 0.0 0.0 0.00 0.00 0.00 67 1015.0
20260904231053 33 203 0.0 1.6 0.00 0.00 0.00 62 1014.7
20260904230552 33 209 0.0 1.6 0.00 0.00 0.00 64 1014.7
20260904230048 33 207 1.6 4.8 0.00 0.00 0.00 65 1014.9
20260904225545 33 214 1.6 1.6 0.00 0.00 0.00 62 1014.9
20260904225045 33 229 3.2 3.2 0.00 0.00 0.00 61 1014.7
20260904224540 33 204 0.0 3.2 0.00 0.00 0.00 62 1014.7
20260904224040 33 223 1.6 3.2 0.00 0.00 0.00 61 1014.6
20260904223539 33 200 3.2 6.4 0.00 0.00 0.00 60 1014.8
20260904223035 33 223 1.6 11.3 0.00 0.00 0.00 59 1014.7
20260904222530 33 220 3.2 3.2 0.00 0.00 0.00 60 1014.7
20260904222025 33 217 1.6 4.8 0.00 0.00 0.00 61 1014.8
20260904221520 33 208 3.2 6.4 0.00 0.00 0.00 58 1014.7
20260904221015 35 225 3.2 3.2 0.00 0.00 0.00 58 1014.6
20260904220515 34 213 3.2 4.8 0.00 0.00 0.00 59 1014.8
20260904220011 33 208 3.2 4.8 0.00 0.00 0.00 60 1014.6
20260904215510 34 235 3.2 6.4 0.00 0.00 0.00 59 1014.9
20260904215006 34 206 3.2 9.7 0.00 0.00 0.00 58 1014.9
20260904214502 33 213 1.6 6.4 0.00 0.00 0.00 60 1015.0
20260904214002 33 241 4.8 6.4 0.00 0.00 0.00 60 1015.0
20260904213500 34 261 6.4 9.7 0.00 0.00 0.00 61 1015.1
20260904212957 34 216 4.8 9.7 0.00 0.00 0.00 62 1014.9
20260904212457 34 212 3.2 6.4 0.00 0.00 0.00 65 1015.2
20260904211952 34 222 3.2 14.5 0.00 0.00 0.00 61 1015.0
20260904211452 34 217 4.8 6.4 0.00 0.00 0.00 61 1015.2
20260904210948 34 248 8.0 11.3 0.00 0.00 0.00 59 1015.0
20260904210446 34 234 3.2 11.3 0.00 0.00 0.00 63 1015.1
20260904205942 34 275 4.8 9.7 0.00 0.00 0.00 59 1015.2
20260904205438 34 229 3.2 11.3 0.00 0.00 0.00 57 1015.3